Location: Famechon
(49.7599°N, 2.0615°E)
Time: 15:14:53
(UTC+00:00)

Cosmos 468 Rocket - Pass Details

Date: 03 February 2023
Orbit: 744 x 778 km, 74.0° (Epoch: 25 March)

Event Time Altitude Azimuth Distance (km) Brightness Sun altitude
Rises 17:58:46 0° 336° (NNW) 3,225 7.4 -11.4°
Reaches altitude 10° 18:01:10 10° 338° (NNW) 2,290 6.6 -11.8°
Maximum altitude 18:06:22 78° 65° (ENE) 773 3.9 -12.6°
Drops below altitude 10° 18:11:29 10° 152° (SSE) 2,258 6.3 -13.4°
Sets 18:13:49 0° 154° (SSE) 3,175 7.0 -13.8°
